SCP
0 0 0 0 0 0 0 0 0 0 0 0 0 2 4 5 4 4 4 4 4 4 5 6 6 6 8 11 13 12 10 9 12 16 19 20 19 16 14 13 14 16 18 19
0 0 0 0 0 0 0 0 0 0 0 0 1 2 5 5 4 3 3 3 3 4 5 5 6 6 8 11 12 11 10 9 11 16 20 21 20 17 14 14 15 15 15 15
0 0 0 0 0 0 0 0 0 0 0 0 1 2 4 4 3 2 2 2 3 4 5 6 6 7 9 11 11 11 10 10 11 16 20 22 21 18 14 14 15 15 14 12
0 0 0 0 0 0 0 0 0 0 0 0 1 2 3 2 2 2 3 3 3 3 4 6 7 8 9 10 10 10 11 11 12 16 20 22 20 17 15 15 16 15 13 12
0 0 0 0 1 0 0 0 0 0 0 0 1 2 3 3 3 5 6 6 5 4 4 6 8 10 10 10 10 11 12 13 14 17 21 23 20 17 16 16 16 15 13 10
0 0 0 1 1 1 1 0 0 0 0 1 1 1 3 4 6 8 10 9 8 7 7 8 10 12 12 12 13 14 15 15 15 17 21 24 22 19 17 16 16 14 11 7
0 0 0 0 1 1 1 1 1 1 1 1 1 1 3 5 8 10 10 10 10 10 11 13 14 15 16 16 16 17 19 18 16 16 21 25 23 19 16 15 15 14 9 6
0 0 0 0 1 1 1 1 1 1 0 1 1 2 5 8 9 9 8 8 8 10 11 13 14 15 15 16 17 21 24 22 17 16 21 25 23 18 16 15 16 15 11 8
0 0 0 0 0 0 0 1 0 0 0 0 1 2 5 8 9 7 5 5 6 7 8 9 11 13 14 18 22 25 26 22 15 16 21 24 21 17 15 15 15 14 12 10
0 0 0 0 0 0 0 0 0 0 0 0 1 1 4 6 7 5 5 6 6 6 6 8 10 12 15 20 24 23 20 15 12 15 21 22 19 16 13 11 11 9 7 6
0 0 0 0 0 0 0 0 0 0 0 0 0 1 3 5 5 4 6 8 8 6 6 9 12 13 13 15 18 17 13 10 9 12 17 17 15 13 10 7 6 5 4 3
0 0 0 0 0 0 0 0 0 1 1 1 1 1 3 4 4 5 8 9 9 8 9 11 14 14 11 11 14 14 11 8 7 8 10 11 10 9 7 5 4 4 4 3
0 0 0 0 0 0 0 0 0 1 1 1 1 1 3 4 4 6 10 10 9 10 11 11 12 12 11 12 14 12 9 7 6 5 6 7 7 6 5 4 4 4 4 4
0 1 0 0 0 0 0 0 0 0 1 1 1 2 3 4 5 8 11 10 8 8 8 8 8 9 9 9 10 9 8 6 6 5 5 5 5 4 4 4 4 4 3 3
1 1 1 0 0 0 0 0 0 0 0 1 1 1 3 5 7 9 10 7 5 4 4 5 6 7 8 7 7 7 7 7 6 6 6 5 4 4 4 4 4 3 3 3
1 1 1 1 1 0 0 0 0 0 0 1 1 2 4 7 8 8 6 4 3 3 4 4 6 8 8 7 6 6 6 6 6 6 6 6 5 4 5 4 3 2 2 2
1 2 1 1 1 0 0 1 1 1 1 1 2 4 7 9 9 6 4 3 3 3 4 5 7 9 9 8 6 5 5 5 4 4 4 4 4 5 5 5 4 3 2 2
2 1 1 1 1 1 1 1 1 1 1 1 2 5 8 9 8 6 4 3 3 4 6 7 8 9 9 9 7 6 5 4 3 2 2 2 3 4 5 5 4 3 3 3
2 2 1 1 1 1 1 2 2 2 3 3 4 6 8 9 8 7 5 4 5 6 8 8 8 8 9 9 8 7 5 4 3 3 2 2 3 3 3 3 3 3 3 3
2 2 1 1 1 1 1 2 2 4 5 4 5 6 8 9 8 7 6 6 6 7 8 7 7 8 10 9 8 7 6 4 3 3 3 3 3 3 3 3 3 3 3 3
2 2 2 1 1 1 1 1 2 4 5 4 4 6 9 8 7 7 7 6 6 6 6 5 6 9 10 9 7 6 5 4 3 3 3 4 4 3 3 3 3 3 3 3
2 2 2 2 2 2 3 3 4 4 4 4 4 5 7 7 6 6 5 5 4 5 4 4 7 9 9 7 6 5 5 4 3 3 3 3 3 2 2 2 3 3 2 2
2 3 2 2 3 4 5 5 5 5 4 4 4 5 6 5 5 4 3 3 3 3 3 4 6 8 8 6 6 5 5 4 3 3 2 2 2 1 1 2 2 2 1 1
3 3 2 3 3 4 4 5 4 4 4 4 4 4 4 4 3 2 2 2 2 2 2 4 6 7 6 5 5 5 5 4 3 2 2 1 1 1 1 1 1 1 1 1
2 2 2 2 2 2 2 3 3 2 2 2 2 3 3 3 2 2 1 1 1 1 1 3 6 6 4 4 5 5 5 4 3 2 2 1 1 1 1 1 1 1 1 1
2 2 1 2 2 2 2 2 2 2 2 2 2 2 2 2 2 2 1 1 1 1 2 3 5 5 3 3 4 4 4 3 3 2 2 1 1 1 1 1 1 1 1 1
Wind_Speed
15 14 13 14 14 14 16 16 15 12 9 10 10 9 7 7 6 8 8 7 7 7 9 8 8 9 9 8 7 5 5 4 4 3 3 3 2 2 2 2 3 3 3 2
14 16 16 15 14 15 16 16 14 11 10 10 11 11 8 6 7 8 8 7 7 7 7 8 9 8 9 8 7 6 5 5 5 4 3 3 3 2 2 2 3 4 3 3
17 14 13 15 14 14 14 15 13 12 12 11 12 13 10 6 8 8 7 8 8 8 8 9 8 8 8 8 8 6 6 5 5 4 3 2 2 2 2 2 2 3 3 3
16 15 14 15 14 13 13 13 13 14 13 11 11 12 8 8 7 8 8 8 8 8 8 8 8 8 7 7 7 6 6 5 4 4 4 4 4 3 3 2 2 3 3 3
16 15 14 15 13 13 13 12 12 15 15 13 10 11 8 7 7 6 7 7 7 7 8 8 8 7 6 6 6 6 6 5 4 4 4 4 3 2 1 1 1 2 2 2
17 14 14 14 12 12 13 12 13 14 11 13 12 12 9 6 6 6 7 7 6 6 6 7 7 7 6 5 5 5 5 5 4 4 4 3 3 2 2 2 2 1 1 2
16 15 13 11 13 12 11 10 9 10 9 10 9 10 4 4 3 3 5 6 6 5 5 6 6 6 6 6 5 5 5 5 4 4 4 3 3 2 3 3 2 2 2 2
14 12 11 10 12 11 10 11 9 10 10 10 9 7 3 3 3 3 3 4 5 4 4 5 5 5 5 5 6 5 6 5 4 4 4 3 3 3 2 2 2 2 2 2
11 11 9 9 10 11 12 11 11 12 14 13 9 6 4 5 5 4 4 4 3 3 4 4 5 5 4 5 5 5 5 4 4 4 4 3 3 2 2 2 2 2 2 3
11 12 11 9 10 13 12 10 8 9 10 11 10 7 3 6 7 7 5 4 3 3 3 4 4 4 4 4 5 5 5 4 4 3 3 2 2 2 2 2 2 2 2 2
9 9 11 11 11 12 11 11 10 8 9 10 9 5 2 5 4 4 4 4 4 2 3 3 5 5 5 4 5 5 4 4 3 3 2 2 2 1 1 1 1 1 2 2
7 6 10 13 11 10 10 10 10 8 9 10 10 4 1 2 2 4 4 5 5 3 2 4 4 5 5 4 4 4 3 3 3 3 2 2 1 1 1 1 1 2 2 3
4 5 8 10 8 8 10 11 11 9 8 9 10 5 2 2 1 2 3 4 4 3 3 3 4 4 4 4 3 3 3 3 2 2 2 2 1 1 1 1 1 2 2 3
4 7 10 12 11 9 11 13 12 11 10 10 10 7 4 1 1 1 3 4 5 4 3 3 4 4 4 3 3 2 2 2 2 2 2 2 1 1 1 1 1 2 2 3
5 9 12 15 16 14 14 15 14 13 12 11 9 8 4 3 3 2 3 3 4 4 4 4 4 4 4 3 3 2 2 2 2 2 1 2 2 2 1 1 1 2 2 3
5 8 12 15 16 16 15 15 14 14 13 11 8 5 0 1 3 3 4 4 4 4 4 5 4 5 4 3 3 2 2 2 2 1 1 1 1 1 1 1 2 2 2 3
7 8 11 13 15 16 15 13 12 10 8 8 6 3 1 2 2 2 2 3 4 5 5 5 4 4 4 3 2 2 1 2 2 1 1 1 1 1 1 2 2 2 2 3
10 9 8 12 14 16 9 7 8 8 3 2 1 2 3 4 4 5 4 4 4 4 5 4 4 5 4 3 2 1 1 2 2 1 1 1 1 1 1 2 2 2 2 3
10 9 9 9 11 11 8 6 6 5 2 2 2 3 4 5 4 4 5 5 4 4 5 4 4 4 4 3 2 1 1 1 1 1 1 1 1 1 2 2 2 2 2 3
8 7 8 10 11 10 5 6 8 6 1 5 5 4 4 3 1 2 5 4 4 5 5 4 4 4 4 3 2 1 1 1 2 2 1 1 1 1 2 3 3 3 3 4
6 8 10 11 10 6 4 6 7 4 2 5 4 4 2 3 3 4 4 4 4 5 4 3 3 3 3 2 2 1 1 1 1 2 2 2 2 2 3 2 3 3 4 4
6 6 7 7 8 4 5 5 4 4 4 4 5 4 4 5 5 4 4 3 3 4 3 2 2 3 3 2 2 1 1 1 1 2 2 2 2 4 3 3 3 4 4 5
4 3 3 2 1 3 5 5 5 5 4 3 3 3 3 3 3 3 2 2 3 3 2 2 2 2 2 2 2 1 1 1 1 2 2 2 3 3 4 4 4 4 3 4
4 4 3 1 1 2 5 6 6 5 4 5 3 2 2 2 2 2 2 2 3 3 2 2 2 1 1 2 2 2 2 1 1 2 2 3 3 4 4 3 3 3 3 3
7 6 5 2 2 2 4 5 5 5 5 4 3 3 2 1 2 2 1 2 2 2 1 1 1 2 2 2 2 1 1 1 2 3 3 4 4 4 3 3 3 3 2 2
4 4 3 2 3 3 3 5 5 3 3 3 3 2 2 2 2 1 2 2 1 1 1 1 2 2 1 1 1 1 1 1 2 3 4 4 4 3 3 3 2 2 3 3
Wind_Direction
226 230 240 244 244 254 267 274 278 278 273 270 263 260 222 215 232 219 199 198 191 186 173 162 162 161 154 153 157 168 177 166 169 176 186 195 205 207 208 193 171 179 199 204
235 232 242 251 253 256 264 272 278 281 272 273 273 267 243 211 224 233 207 193 197 190 171 161 167 167 163 161 167 177 176 172 183 185 190 198 196 206 202 200 177 176 187 205
237 241 240 249 257 259 263 271 278 277 281 272 272 264 246 217 223 220 207 196 194 192 182 172 170 172 172 171 175 177 175 177 186 186 185 193 180 201 206 190 184 188 194 199
249 250 250 252 253 258 263 271 280 281 279 275 268 275 246 214 215 214 202 199 196 193 186 175 172 175 181 176 172 167 166 173 179 183 192 197 203 206 205 190 189 191 194 204
248 247 250 255 256 261 270 279 282 285 281 279 271 273 260 216 210 209 198 198 199 191 184 173 173 179 180 174 168 161 159 168 177 188 197 198 212 208 199 181 200 194 201 206
253 251 250 259 262 261 272 278 276 271 270 265 263 262 259 242 217 202 198 189 191 185 178 169 171 167 170 169 166 156 156 166 175 185 194 199 203 199 195 200 202 217 208 204
252 247 247 247 255 251 256 267 273 270 259 261 258 257 246 221 219 190 184 172 171 168 170 167 168 164 162 163 161 156 160 171 177 185 190 195 196 196 206 211 201 217 224 219
257 253 237 236 249 264 255 253 261 276 280 282 266 250 205 183 149 137 140 145 151 163 162 162 162 156 162 165 162 160 162 169 175 182 185 188 192 203 212 214 218 226 232 223
262 264 254 246 248 255 261 258 265 272 275 280 272 259 200 165 155 147 160 157 153 152 154 156 149 154 166 166 156 153 154 161 174 185 183 185 188 205 214 209 215 227 226 229
266 275 268 259 253 243 250 264 268 268 277 281 280 278 222 185 175 172 181 165 150 151 150 153 148 151 148 143 138 138 146 159 172 177 181 184 181 188 194 217 228 242 244 248
272 278 275 264 254 259 244 248 258 275 279 283 285 291 212 167 148 153 153 139 141 180 168 156 148 144 140 135 134 131 142 155 159 158 161 165 171 178 190 233 242 256 260 249
269 274 271 266 262 263 260 255 251 254 268 275 282 283 28 98 136 158 166 158 153 168 154 130 133 135 138 143 136 131 142 146 151 147 141 144 152 159 215 250 255 259 263 258
279 273 271 264 252 253 252 252 253 257 262 267 273 266 163 153 150 145 140 130 123 120 128 133 128 129 129 124 118 130 138 134 142 138 139 141 160 182 230 256 257 265 271 270
260 258 264 269 273 270 266 267 264 258 262 269 268 265 225 239 113 92 107 114 123 128 127 132 114 110 118 121 121 126 127 124 128 133 145 151 173 208 242 257 264 264 268 267
261 261 265 270 273 270 271 269 264 261 265 270 269 271 254 168 145 140 120 122 134 138 128 120 124 123 121 122 122 111 111 112 123 140 158 173 193 214 218 250 281 278 287 285
257 269 276 277 275 274 267 264 263 262 267 267 271 281 225 137 126 128 131 154 163 153 137 136 139 131 127 126 122 119 121 132 145 161 188 200 210 219 219 247 269 273 285 287
253 255 270 275 279 280 269 269 268 262 265 277 280 282 124 119 118 125 131 137 137 138 133 131 124 120 116 121 125 140 164 168 173 185 217 234 229 241 244 268 269 271 289 299
246 254 262 271 273 266 269 267 274 278 265 276 268 130 124 102 88 81 79 87 107 117 122 121 116 118 123 131 131 158 184 180 196 211 228 233 264 268 267 272 280 289 296 297
227 239 254 261 265 268 274 295 305 290 298 47 118 122 108 101 110 96 76 65 80 110 110 115 123 125 131 135 142 175 206 198 224 246 247 256 262 274 284 291 295 291 287 286
219 226 248 258 264 267 281 329 333 312 265 41 70 88 92 97 162 93 71 67 75 97 103 113 126 130 129 130 146 173 215 241 255 263 278 289 291 287 283 285 284 284 281 280
235 227 238 256 262 270 349 335 319 303 26 30 43 54 52 53 54 95 88 74 86 96 103 107 121 124 126 138 158 193 241 263 286 305 312 319 316 287 273 271 274 273 273 279
253 250 246 254 259 265 360 352 14 43 41 42 47 43 54 73 86 94 97 102 118 115 118 123 122 124 127 149 168 203 264 292 305 306 307 304 294 290 293 279 273 270 269 277
271 292 289 301 350 50 42 46 42 43 30 32 43 51 83 95 110 114 121 133 134 126 116 132 132 129 144 173 187 213 259 284 303 307 309 302 297 292 286 279 280 274 266 268
315 330 290 297 90 56 49 43 36 29 20 12 15 37 75 104 124 138 142 137 136 131 138 159 162 174 187 193 207 215 249 271 297 303 304 295 283 278 284 280 277 284 294 297
323 325 316 333 1 357 35 31 30 30 15 7 8 26 36 92 133 144 143 139 149 151 165 183 178 207 228 230 212 216 246 276 303 299 290 286 282 285 283 276 283 285 278 277
315 318 307 326 348 346 358 5 16 28 351 358 22 33 42 54 71 83 98 114 119 146 199 192 199 227 248 259 258 239 255 286 295 291 290 287 285 285 285 288 291 301 269 256